Location: Leiter
(44.7178°N, 106.2687°W)
Time: 06:18:57
(UTC+00:00)

NOAA 19 - Pass Details

Date: 09 July 2022
Orbit: 840 x 861 km, 99.1° (Epoch: 09 August)

Event Time Altitude Azimuth Distance (km) Brightness Sun altitude
Rises 04:04:18 0° 224° (SW) 3,412 8.3 -10.6°
Reaches altitude 10° 04:09:34 10° 267° (W) 2,479 8.2 -11.3°
Maximum altitude 04:10:09 10° 274° (W) 2,468 8.3 -11.3°
Drops below altitude 10° 04:10:44 10° 280° (W) 2,479 8.5 -11.4°
Sets 04:16:02 0° 323° (NW) 3,417 10.5 -12.0°
